Location: Ocean City
(38.3360°N, 75.0850°W)
Time: 18:28:08
(UTC-04:00)

M-CUBED/EXP-1 PRIME - Visible Passes

Search period start: 19 May 2019 00:00
Search period end: 29 May 2019 00:00
Orbit: 430 x 671 km, 101.7° (Epoch: 19 May)

Date Brightness Start Highest point End Pass type
(mag) Time Alt. Az. Time Alt. Az. Time Alt. Az.
19 May ? 22:43:13 10° NNE 22:44:00 15° NE 22:44:00 15° NE visible
20 May ? 00:19:40 10° NW 00:19:42 10° NW 00:19:42 10° NW visible
20 May ? 22:39:06 10° NE 22:39:38 13° NE 22:39:38 13° NE visible
21 May ? 00:14:40 10° NW 00:15:21 12° NW 00:15:21 12° NW visible
21 May ? 22:35:01 10° NE 22:35:17 12° NE 22:35:17 12° NE visible
22 May ? 00:10:01 10° NNW 00:10:59 13° NW 00:10:59 13° NW visible
23 May ? 00:05:27 10° NNW 00:06:37 15° NW 00:06:37 15° NW visible
24 May ? 00:00:58 10° NNW 00:02:15 17° NW 00:02:15 17° NW visible
24 May ? 23:56:32 10° N 23:57:53 18° NNW 23:57:53 18° NNW visible
25 May ? 23:52:08 10° N 23:53:32 20° NNW 23:53:32 20° NNW visible
26 May ? 23:47:44 10° N 23:49:10 21° NNW 23:49:10 21° NNW visible
27 May ? 23:43:23 10° N 23:44:47 22° N 23:44:47 22° N visible
28 May ? 23:39:03 10° N 23:40:25 23° N 23:40:25 23° N visible
